Showing default

SIGI, 62632

Orbit data source: Space-Track

SIGI, 62632 is a German payload satellite in SSO that was launched on Tue, 14 Jan 2025 UTC via an FALCON 9 launch vehicle from the Air Force Western Test Range (AFWTR). Payload-class satellites include a variety of spacecraft equipped with specific instruments for various scientific and technological missions. These include communications satellites like Starlink; space stations such as the ISS; scientific satellites like the Hubble; Earth observation satellites from companies like Planet Labs, Umbra, and HawkEye 360; GPS; miniature CubeSats for education and research; and military/defense satellites.

Loading next visibility...
Identifier
62632, 2025-009Z
Orbit
SSO
Country
Flag of DEDE / GER
Related business
Manufacturer
REFLEX
Mission
Operational Commercial Communications
Bus & Motor
OMNIFLEX, Unknown motor
Mass
109 kg wet, 109 kg dry
Launch date (UTC)
2025-01-14 (1 year ago)
Launch vehicle
FALCON 9
Launch site
Air Force Western Test Range (AFWTR)
Object type
Payload
Rocket body
Debris
Shape & HBR
Box + 2 Pan, 1.0 m
Radar Cross Section
1.176 m², Medium (>0.1 m² and < 1m²)

Expand to show TLE details & history
Last TLE update: 14 hours ago

TLE from 14 hours ago
0 SIGI
1 62632U 25009Z   26034.49969167  .00006953  00000-0  29876-3 0  9999
2 62632  97.4112 116.4031 0004614  71.4604 288.7133 15.22974819 58449
Epoch: 2026-02-03T11:59Z
TLE epoch observation values (Epoch: 2026-02-03T11:59:33.360Z)
Latitude
-0.00008°
Longitude
162.83437°
Altitude
498.951 km
Speed
7.616 km/s
True Right ascension
07h 45m 36s
True Declination
0° 00' 00"
Sunlit
Object was in full shadow at epoch
Visualization orbit readout
Latitude
Unknown
Longitude
Unknown
Altitude
Unknown
Speed
Unknown
Apparent Right ascension
Unknown
Apparent Declination
Unknown
Sunlit
N/A
Visualization observer readout
Local Sidereal Time
04:18:22
Azimuth
Unknown
Elevation
Unknown
Doppler factor
Unknown
Orbital elements
Apogee altitude
497.006 km
Perigee altitude
490.665 km
Semi-major axis
6,871.972 km
Eccentricity
0.00046
Inclination
97.4112°
RAAN
116.4031°
Arg. of periapsis
71.4604°
True anomaly
288.66321°
Mean anomaly
288.7133°
Eccentric anomaly
288.68826°
Mean motion
3.80997 °/min
Orbital period
94.49 mins
BSTAR
0.00029876
Loading maneuver chart data...
Computing Atmospheric mass density...
Loading historical data...
Loading historical data...
Loading historical data...
Loading historical data...
Loading historical data...
Loading historical data...
Loading historical data...

Documentation

Showing up to 5 results
|